[[{"header":{"parameterUnit":"m.s-1","parameterCategory":1,"la1":30.2991,"la2":30.254,"lo1":-89.0895,"lo2":-89.0444,"dy":0.0017,"dx":0.0017,"nx":28,"ny":28,"refTime":"2024-03-11T03:00:00:Z","depth":0,"parameterNumber":2,"parameterNumberName":"U-component_of_WINDS"},"data":[0,0,0,0,0,0,0,0,0,0,0,0,0,0,0,0,0,0,0,0,0,0,0,0,0,0,0,0,0,0,0,0,0,0,0,0,0,0,0,0,0,0,0,0,0,0,0,0,0,0,0,0,0,0,0,0,0,0,-0.4947,-0.4948,0,-0.504,-0.5041,-0.5042,-0.5036,-0.5034,-0.5033,-0.5031,-0.513,-0.5134,-0.5138,0,0,0,0,0,0,0,0,0,0,0,0,0,-0.4765,-0.4769,-0.4946,-0.4948,-0.4949,-0.504,-0.5041,-0.5042,-0.5036,-0.5034,-0.5032,-0.5031,-0.5129,-0.5133,-0.5138,0,0,0,0,0,0,0,0,0,0,0,0,0,-0.485,-0.477,-0.4946,-0.4956,-0.4958,-0.5039,-0.5041,-0.5043,-0.5036,-0.5034,-0.5032,-0.503,-0.5127,-0.5133,-0.5139,-0.5217,0,0,-0.5157,-0.5159,0,0,0,0,0,0,0,0,-0.4845,-0.4857,-0.4954,-0.4956,-0.4958,-0.5024,-0.5013,-0.5101,-0.5037,-0.5007,-0.5031,-0.5029,-0.5097,-0.5105,-0.5127,-0.5221,-0.5226,-0.5157,-0.5161,-0.5163,-0.5165,0,0,0,0,0,0,0,-0.4839,-0.4853,-0.4984,-0.4955,-0.4958,-0.4957,-0.4967,-0.503,-0.5062,-0.5009,-0.5009,-0.502,-0.5097,-0.5121,-0.5129,-0.5227,-0.5157,-0.5162,-0.5166,-0.5168,-0.5391,-0.5393,0,0,0,0,0,0,-0.4831,-0.4848,-0.4981,-0.4986,-0.4895,-0.4962,-0.4973,-0.5005,-0.5062,-0.5068,-0.5022,-0.5019,-0.5112,-0.5122,-0.5133,-0.5229,-0.5163,-0.5169,-0.5172,-0.5389,-0.5391,-0.5394,0,0,0,0,0,0,-0.4827,-0.4843,-0.4977,-0.4917,-0.4934,-0.4967,-0.5003,-0.5008,-0.5032,-0.5071,-0.5077,-0.504,-0.5111,-0.5124,-0.5196,-0.5232,-0.5171,-0.5177,-0.5386,-0.5389,-0.5393,-0.5421,0,0,0,0,0,0,-0.4822,-0.4841,-0.4871,-0.4918,-0.4937,-0.5038,-0.5006,-0.5011,-0.5042,-0.504,-0.509,-0.5096,-0.5111,-0.5187,-0.5202,-0.5239,-0.5181,-0.5383,-0.5387,-0.5392,-0.5417,-0.5425,-0.5432,0,0,0,0,0,-0.4815,-0.4875,-0.4872,-0.4888,-0.4975,-0.504,-0.5051,-0.5066,-0.5045,-0.5075,-0.51,-0.5095,-0.5225,-0.5195,-0.5211,-0.5251,-0.5381,-0.5386,-0.5391,-0.5414,-0.5424,-0.5432,0,0,0,0,0,0,-0.4833,-0.4882,-0.4879,-0.4956,-0.4994,-0.5039,-0.5077,-0.5075,-0.5121,-0.5117,-0.5134,-0.5145,-0.5217,-0.5241,-0.5206,-0.5329,-0.53,-0.5309,-0.5312,-0.5321,-0.5329,-0.5323,-0.5186,0,0,0,0,0,-0.4846,-0.4894,-0.4934,-0.4998,-0.5017,-0.5044,-0.5073,-0.5081,-0.5121,-0.5137,-0.5167,-0.5208,-0.5258,-0.5291,-0.5339,-0.542,-0.5431,-0.5455,-0.5462,-0.5468,-0.5477,-0.5522,-0.5534,-0.5412,-0.5412,-0.5412,0,0,-0.4873,-0.4905,-0.4935,-0.5003,-0.5033,-0.5083,-0.5058,-0.5112,-0.515,-0.5146,-0.5215,-0.5239,-0.5284,-0.5361,-0.5396,-0.5383,-0.5513,-0.5475,-0.548,-0.5485,-0.5529,-0.554,-0.5551,-0.5415,-0.5415,-0.5414,0,0,-0.4949,-0.4977,-0.5034,-0.5065,-0.511,-0.5128,-0.5141,-0.5187,-0.5202,-0.5271,-0.527,-0.5315,-0.5401,-0.5434,-0.5462,-0.5549,-0.5546,-0.5564,-0.5604,-0.5649,-0.5658,-0.5667,-0.57,-0.5711,-0.5572,-0.5572,-0.5572,0,-0.4977,-0.5052,-0.5064,-0.5119,-0.5149,-0.5146,-0.5205,-0.5234,-0.5294,-0.5315,-0.5299,-0.5406,-0.5437,-0.5522,-0.5543,-0.5565,-0.5582,-0.556,-0.5656,-0.5664,-0.5673,-0.5704,-0.5716,-0.5574,-0.5574,-0.5574,-0.5573,0,-0.5086,-0.5138,-0.5178,-0.5235,-0.527,-0.5326,-0.5347,-0.5381,-0.5385,-0.5405,-0.5476,-0.5512,-0.5568,-0.5588,-0.5593,-0.5674,-0.5665,-0.5652,-0.5623,-0.5686,-0.5716,-0.5728,-0.5577,-0.5576,-0.5576,-0.5575,0,0,-0.5177,-0.5239,-0.5254,-0.528,-0.5329,-0.537,-0.5426,-0.548,-0.5509,-0.555,-0.5599,-0.5671,-0.5659,-0.5691,-0.57,-0.5738,-0.5807,-0.5721,-0.5722,-0.5737,-0.5899,-0.591,-0.5924,-0.5804,-0.5806,-0.5808,-0.5896,0,-0.5259,-0.5358,-0.5371,-0.5459,-0.5508,-0.5506,-0.5555,-0.5591,-0.561,-0.5655,-0.5677,-0.5728,-0.5708,-0.5727,-0.5765,-0.579,-0.584,-0.5784,-0.5851,-0.5853,-0.5842,-0.5939,-0.5951,-0.6032,-0.5908,-0.591,-0.5911,0,-0.5369,-0.5412,-0.5505,-0.5548,-0.5569,-0.5613,-0.5663,-0.5706,-0.5747,-0.5758,-0.5793,-0.5797,-0.5856,-0.5823,-0.5906,-0.5868,-0.5896,-0.5912,-0.5916,-0.5924,-0.5887,-0.5952,-0.6058,-0.6071,-0.5929,-0.5928,-0.5926,0,-0.5428,-0.5509,-0.5576,-0.5598,-0.5649,-0.568,-0.5703,-0.5742,-0.5774,-0.5818,-0.5839,-0.5889,-0.5917,-0.5957,-0.5974,-0.5948,-0.6056,-0.6025,-0.6069,-0.6069,-0.6094,-0.6092,-0.6208,-0.6108,-0.6108,-0.6108,-0.6108,0,-0.552,-0.5577,-0.5603,-0.5644,-0.5709,-0.5722,-0.5786,-0.5808,-0.5843,-0.5889,-0.5889,-0.5933,-0.5952,-0.5999,-0.6013,-0.608,-0.6092,-0.6104,-0.6107,-0.6105,-0.6104,-0.6125,-0.6121,-0.6111,-0.611,-0.611,-0.6109,0,-0.5598,-0.5617,-0.569,-0.5732,-0.5744,-0.579,-0.5827,-0.5867,-0.5885,-0.5943,-0.5958,-0.5987,-0.6042,-0.6062,-0.613,-0.6139,-0.6217,-0.6215,-0.6203,-0.6205,-0.6248,-0.6244,-0.6383,-0.6402,-0.6288,-0.6289,-0.629,0,-0.5656,-0.57,-0.5747,-0.5777,-0.5801,-0.585,-0.5882,-0.5897,-0.593,-0.598,-0.6015,-0.6069,-0.6114,-0.6202,-0.6229,-0.6281,-0.6281,-0.6326,-0.6289,-0.6286,-0.6284,-0.6282,-0.6287,-0.6334,-0.6335,-0.6336,-0.6337,0,-0.5758,-0.5765,-0.581,-0.5859,-0.5897,-0.5937,-0.5975,-0.6,-0.6021,-0.6058,-0.6114,-0.6148,-0.6216,-0.6271,-0.6323,-0.6348,-0.6347,-0.6347,-0.6361,-0.636,-0.6352,-0.6359,-0.6224,-0.6345,-0.6344,-0.6343,-0.6343,-0.6343,-0.5829,-0.5868,-0.5907,-0.5958,-0.5988,-0.6024,-0.6064,-0.6087,-0.6133,-0.6189,-0.6195,-0.6255,-0.6295,-0.6366,-0.6393,-0.6441,-0.6429,-0.6448,-0.6453,-0.6458,-0.6462,-0.6342,-0.645,-0.645,-0.645,-0.6449,-0.6449,0,-0.5932,-0.5957,-0.6003,-0.6056,-0.6097,-0.6089,-0.6131,-0.6166,-0.6219,-0.6256,-0.6299,-0.6363,-0.6416,-0.6447,-0.65,-0.6533,-0.6534,-0.6547,-0.6546,-0.6552,-0.6468,-0.6452,-0.6545,-0.6545,-0.6545,-0.6545,-0.6545,-0.6545,-0.5991,-0.6057,-0.6069,-0.6151,-0.6175,-0.6234,-0.6258,-0.6292,-0.6321,-0.6393,-0.6436,-0.6456,-0.6491,-0.6547,-0.6595,-0.6603,-0.6623,-0.6638,-0.6645,-0.6567,-0.6557,-0.6548,-0.6533,-0.6641,-0.6641,-0.6724,-0.6725,-0.6725]},{"header":{"parameterUnit":"m.s-1","parameterCategory":1,"la1":30.2991,"la2":30.254,"lo1":-89.0895,"lo2":-89.0444,"dy":0.0017,"dx":0.0017,"nx":28,"ny":28,"refTime":"2024-03-11T03:00:00:Z","depth":0,"parameterNumber":3,"parameterNumberName":"V-component_of_WINDS"},"data":[0,0,0,0,0,0,0,0,0,0,0,0,0,0,0,0,0,0,0,0,0,0,0,0,0,0,0,0,0,0,0,0,0,0,0,0,0,0,0,0,0,0,0,0,0,0,0,0,0,0,0,0,0,0,0,0,0,0,-3.3305,-3.3306,0,-3.3386,-3.3386,-3.3387,-3.3327,-3.3325,-3.3322,-3.332,-3.34,-3.3405,-3.3409,0,0,0,0,0,0,0,0,0,0,0,0,0,-3.3097,-3.3101,-3.3305,-3.3306,-3.3307,-3.3385,-3.3386,-3.3388,-3.3328,-3.3325,-3.3321,-3.3318,-3.3399,-3.3404,-3.341,0,0,0,0,0,0,0,0,0,0,0,0,0,-3.3183,-3.3102,-3.3305,-3.3286,-3.3286,-3.3385,-3.3387,-3.3388,-3.3328,-3.3324,-3.3321,-3.3317,-3.3397,-3.3404,-3.3411,-3.3532,0,0,-3.3432,-3.3435,0,0,0,0,0,0,0,0,-3.3179,-3.3191,-3.3288,-3.3288,-3.3287,-3.3342,-3.3343,-3.3436,-3.3329,-3.3312,-3.3319,-3.3315,-3.3384,-3.3392,-3.3416,-3.3536,-3.3539,-3.3432,-3.3437,-3.344,-3.3441,0,0,0,0,0,0,0,-3.3173,-3.3187,-3.3337,-3.329,-3.3289,-3.3274,-3.3282,-3.336,-3.3369,-3.3313,-3.3309,-3.332,-3.3383,-3.3409,-3.3417,-3.354,-3.3432,-3.3438,-3.3443,-3.3445,-3.3764,-3.3768,0,0,0,0,0,0,-3.3169,-3.3183,-3.3334,-3.3339,-3.3222,-3.3281,-3.3289,-3.3329,-3.3368,-3.337,-3.3323,-3.3317,-3.3399,-3.3409,-3.342,-3.3565,-3.3439,-3.3446,-3.345,-3.376,-3.3765,-3.377,0,0,0,0,0,0,-3.3164,-3.3183,-3.3331,-3.326,-3.3277,-3.3288,-3.3333,-3.3332,-3.3358,-3.3375,-3.3376,-3.3348,-3.3397,-3.341,-3.3505,-3.3567,-3.3449,-3.3455,-3.3755,-3.3761,-3.3767,-3.3856,0,0,0,0,0,0,-3.3159,-3.3181,-3.3228,-3.3261,-3.3282,-3.3415,-3.3337,-3.3337,-3.337,-3.3363,-3.3399,-3.3401,-3.3395,-3.3495,-3.3512,-3.3574,-3.3461,-3.3749,-3.3758,-3.3765,-3.3847,-3.3864,-3.3879,0,0,0,0,0,-3.3151,-3.3249,-3.3231,-3.3249,-3.334,-3.3419,-3.343,-3.3421,-3.3376,-3.3422,-3.3433,-3.34,-3.3557,-3.3505,-3.3523,-3.3589,-3.3745,-3.3755,-3.3765,-3.384,-3.3861,-3.3879,0,0,0,0,0,0,-3.3223,-3.3253,-3.3233,-3.3345,-3.338,-3.3409,-3.3468,-3.3443,-3.3491,-3.3482,-3.3468,-3.3477,-3.3576,-3.3592,-3.3533,-3.3708,-3.3644,-3.3658,-3.3695,-3.3715,-3.373,-3.3725,-3.3466,0,0,0,0,0,-3.3252,-3.3314,-3.3337,-3.3433,-3.3452,-3.3457,-3.3491,-3.348,-3.3516,-3.353,-3.3548,-3.3583,-3.364,-3.3678,-3.3731,-3.3849,-3.3856,-3.3903,-3.3919,-3.3932,-3.3944,-3.4008,-3.4029,-3.3802,-3.3802,-3.3801,0,0,-3.3312,-3.3336,-3.3376,-3.3448,-3.3474,-3.3538,-3.347,-3.354,-3.3588,-3.354,-3.3632,-3.3646,-3.3684,-3.3791,-3.3838,-3.3807,-3.4008,-3.3944,-3.3954,-3.396,-3.402,-3.4041,-3.406,-3.3808,-3.3807,-3.3806,0,0,-3.3454,-3.3479,-3.3562,-3.3589,-3.363,-3.3632,-3.3652,-3.3685,-3.3693,-3.3784,-3.375,-3.3806,-3.3904,-3.3933,-3.3961,-3.4114,-3.4085,-3.4131,-3.4215,-3.4277,-3.4295,-3.431,-3.4366,-3.4386,-3.4143,-3.4144,-3.4144,0,-3.3524,-3.362,-3.3608,-3.3681,-3.3714,-3.3675,-3.3759,-3.3785,-3.3841,-3.3864,-3.3828,-3.3951,-3.3974,-3.4087,-3.4124,-3.4148,-3.417,-3.4128,-3.4293,-3.4309,-3.4323,-3.4376,-3.4397,-3.4149,-3.4149,-3.4148,-3.4147,0,-3.3703,-3.377,-3.3833,-3.3888,-3.3927,-3.4006,-3.4005,-3.4047,-3.4033,-3.4039,-3.4132,-3.4158,-3.4216,-3.4242,-3.4229,-3.4354,-3.4333,-3.4295,-3.423,-3.4351,-3.44,-3.442,-3.4157,-3.4155,-3.4153,-3.4152,0,0,-3.3894,-3.3942,-3.3965,-3.399,-3.4031,-3.4082,-3.4158,-3.4216,-3.4252,-3.4291,-3.4355,-3.4439,-3.4405,-3.4436,-3.4425,-3.448,-3.46,-3.4435,-3.4436,-3.4466,-3.474,-3.4769,-3.4792,-3.4581,-3.4585,-3.4588,-3.4737,0,-3.4039,-3.4173,-3.4164,-3.429,-3.4352,-3.4315,-3.4382,-3.4414,-3.4422,-3.4475,-3.4483,-3.4544,-3.4493,-3.4512,-3.4564,-3.4575,-3.4655,-3.4564,-3.464,-3.4643,-3.4633,-3.4818,-3.4848,-3.4988,-3.4756,-3.4759,-3.4761,0,-3.4227,-3.4273,-3.4406,-3.4438,-3.4464,-3.4524,-3.4576,-3.4627,-3.4663,-3.4664,-3.47,-3.468,-3.4756,-3.4689,-3.4794,-3.4732,-3.4763,-3.4773,-3.4778,-3.4785,-3.471,-3.4831,-3.5032,-3.5053,-3.4791,-3.4789,-3.4787,0,-3.4354,-3.4449,-3.4541,-3.4563,-3.4603,-3.4646,-3.4664,-3.4696,-3.4731,-3.4776,-3.4799,-3.4852,-3.4882,-3.4923,-3.4918,-3.4869,-3.5025,-3.4957,-3.5029,-3.5029,-3.5064,-3.5063,-3.5274,-3.5083,-3.5082,-3.5082,-3.5082,0,-3.4517,-3.46,-3.4599,-3.4655,-3.4746,-3.4735,-3.4826,-3.4839,-3.4868,-3.4926,-3.4896,-3.4951,-3.4941,-3.4996,-3.4992,-3.508,-3.5093,-3.5097,-3.5095,-3.51,-3.51,-3.5121,-3.5112,-3.5088,-3.5086,-3.5085,-3.5084,0,-3.4675,-3.4677,-3.4775,-3.4805,-3.4814,-3.488,-3.4905,-3.4958,-3.4963,-3.5037,-3.5054,-3.5062,-3.5125,-3.5124,-3.5195,-3.5193,-3.5301,-3.5288,-3.529,-3.5287,-3.536,-3.5353,-3.5593,-3.5624,-3.5411,-3.5413,-3.5415,0,-3.478,-3.4843,-3.4879,-3.4916,-3.4938,-3.4998,-3.5034,-3.5025,-3.5063,-3.5108,-3.5156,-3.5217,-3.5265,-3.5367,-3.5379,-3.5433,-3.5421,-3.5501,-3.5429,-3.5433,-3.5424,-3.542,-3.5427,-3.5516,-3.5518,-3.552,-3.5522,0,-3.4966,-3.4964,-3.5017,-3.5072,-3.5116,-3.5157,-3.5196,-3.5228,-3.5223,-3.5267,-3.5332,-3.5369,-3.5442,-3.5503,-3.5555,-3.5573,-3.5547,-3.5544,-3.5564,-3.557,-3.5569,-3.5572,-3.5329,-3.5539,-3.5537,-3.5536,-3.5535,-3.5535,-3.5101,-3.5156,-3.519,-3.525,-3.5278,-3.5315,-3.5367,-3.5379,-3.5432,-3.5492,-3.5483,-3.5555,-3.5588,-3.5656,-3.5679,-3.5735,-3.5706,-3.5735,-3.5742,-3.575,-3.5758,-3.556,-3.5744,-3.5743,-3.5743,-3.5743,-3.5742,0,-3.5287,-3.5307,-3.5363,-3.5418,-3.5465,-3.5437,-3.5478,-3.5519,-3.5584,-3.5617,-3.5665,-3.5739,-3.5797,-3.5814,-3.587,-3.5912,-3.5901,-3.5927,-3.5924,-3.5929,-3.578,-3.5758,-3.5934,-3.5934,-3.5934,-3.5934,-3.5934,-3.5934,-3.5389,-3.548,-3.5482,-3.5586,-3.5605,-3.5676,-3.5702,-3.5736,-3.5763,-3.5847,-3.5896,-3.5906,-3.5933,-3.5991,-3.6043,-3.6046,-3.6068,-3.6099,-3.6098,-3.5958,-3.5939,-3.5921,-3.59,-3.6104,-3.6104,-3.6242,-3.6244,-3.6245]}]]